Weather in Panevezys

Lithuania     55°43′56″N   24°21′17″E
temp.,
°C
wind,
m/s
gust,
m/s
humid.,
%
clouds,
%
prec.,
mm/h
press.,
hPa
HPBL,
m
6 august, fri
fri600:00+12ene4109176 0.0 1012247
03:00+10ne51394100 0.0 1011347
06:00+10ne61496100 0.0 1009467
09:00+13ne71380100 0.0 1008742
12:00+15ne81275100 0.1 1006800
15:00+13ne81595100 5.5 1005684
18:00+14ne71595100 5.4 1003847
21:00+15ne71495100 5.6 1002681
7 august, sat
sat700:00+15ne61297100 0.1 1001555
03:00+16ene51198100 1.1 999470
06:00+16e3699100 0.8 999323
09:00+15se3595100 0.8 1000417
12:00+15se3494100 0.1 1001475
15:00+15s2394100 0.2 1003280
18:00+17ssw238987 0.1 1004436
21:00+16w479689 0.3 1006277
8 august, sun
sun800:00+15wsw389798 0.0 1008263
03:00+14wsw489859 0.0 1009211
06:00+12sw34977 0.0 101087
09:00+16ssw33847 0.0 1011280
12:00+21s3462100 0.0 1012663
15:00+23se5658100 0.0 10111204
18:00+21se4873100 0.1 1009293
21:00+19sse51191100 1.6 1009283
9 august, mon
mon900:00+17sw5119624 0.4 1011344
03:00+17sw5109498 0.4 1012649
06:00+16sw499193 0.0 1014377
09:00+18sw598618 0.0 1015488
12:00+21sw68685 0.7 10161163
15:00+24sw784857 0.9 10162307
18:00+22w68605 0.0 10171570
21:00+17wnw34812 0.1 101951
10 august, tue
tue1000:00+14wsw23925 0.0 102034
03:00+13sw2294100 0.0 102030
06:00+13ssw2293100 0.0 101912
09:00+17s2376100 0.0 1019231
12:00+21s3457100 0.0 1019800
15:00+23s3448100 0.1 10181546
18:00+23se3354100 0.0 10161445
21:00+15w71093100 1.8 1017255